User: anonymous   Login
Location: Unspecified
(0.0000°N, 0.0000°E)
Time: 08:50:05
(UTC+00:00)
Language:

MERIDIAN 6 - Orbit

View from above orbital plane
View from above orbital plane
View from above satellite
View from above satellite

Ground track
Ground track

The orbit data is extracted from the following two-line orbital elements,

1 38995U 12063A   17177.48636867 -.00000036 +00000-0 +10000-3 0  9991
2 38995 065.3274 334.0817 6914218 282.5796 013.4823 02.00600259033819
Epoch (UTC): 26 June 2017 11:40:22
Eccentricity: 0.6914218
inclination: 65.3274°
perigee height: 1817 km
apogee height: 38541 km
right ascension of ascending node: 334.0817°
argument of perigee: 282.5796°
revolutions per day: 2.00600259
mean anomaly at epoch: 13.4823°
orbit number at epoch: 3381

The dashed part of the orbit path shows where the satellite is in the earth's shadow,  

DLR